Hourly Data Report for September 11, 2017

All times are specified in Local Standard Time (LST). Add 1 hour to adjust for Daylight Saving Time where and when it is observed.

KUGLUKTUK A
NUNAVUT

67°49'00.000" N
115°08'38.000" W
22.60 m
2300903
71938
YCO

Download Data

Hourly Data (September 2017)
Hourly Data Report for September 11, 2017
Temp Definition
°C
Dew Point Temp Definition
°C
Rel Hum Definition
%
Wind Dir Definition
10's deg

Wind Spd Definition
km/h
Visibility Definition
km
Stn Press Definition
kPa
Hmdx Definition


Wind Chill Definition


Weather Definition


TIME
00:00 Legend Double Dagger 4.8 4.1 95 1 22 9.7 100.52     Drizzle,Fog
01:00 Legend Double Dagger 5.0 4.2 95 1 20 9.7 100.50     Fog
02:00 Legend Double Dagger 5.3 4.3 93 3 17 12.9 100.49     Cloudy
03:00 Legend Double Dagger 5.4 3.9 90 4 13 12.9 100.48     LegendNANA
04:00 Legend Double Dagger 5.2 4.1 93 3 13 16.1 100.47     Rain
05:00 Legend Double Dagger 5.2 4.2 93 4 10 19.3 100.45     Rain
06:00 Legend Double Dagger 5.4 4.6 94 6 8 19.3 100.43     Rain
07:00 Legend Double Dagger 5.8 5.2 96 7 13 19.3 100.43     LegendNANA
08:00 Legend Double Dagger 6.1 5.5 96 7 10 19.3 100.41     Cloudy
09:00 Legend Double Dagger 6.3 5.8 97 6 10 19.3 100.38     LegendNANA
10:00 Legend Double Dagger 6.6 6.3 98 7 10 19.3 100.36     Drizzle
11:00 Legend Double Dagger 7.1 6.0 93 9 18 19.3 100.36     Cloudy
12:00 Legend Double Dagger 6.5 6.3 99 10 26 8.1 100.29     Drizzle,Fog
13:00 Legend Double Dagger 7.1 6.8 98 9 21 4.8 100.29     Fog
14:00 Legend Double Dagger 7.7 7.0 96 10 17 19.3 100.28     Cloudy
15:00 Legend Double Dagger 7.7 6.8 94 6 20 12.9 100.27     LegendNANA
16:00 Legend Double Dagger 7.7 6.9 95 4 10 12.9 100.27     LegendNANA
17:00 Legend Double Dagger 7.4 6.6 94 3 14 19.3 100.26     Cloudy
18:00 Legend Double Dagger 7.2 6.4 95 36 11 16.1 100.28     LegendNANA
19:00 Legend Double Dagger 6.7 6.2 97 1 9 16.1 100.28     LegendNANA
20:00 Legend Double Dagger 6.5 6.1 97 1 8 16.1 100.25     Rain
21:00 Legend Double Dagger 6.6 6.2 97 36 2 16.1 100.24     Rain
22:00 Legend Double Dagger 6.0 5.9 99 21 10 16.1 100.26     Rain
23:00 Legend Double Dagger 8.2 6.8 91 23 16 24.1 100.28     Rain

Notes on Data Quality.

Legend

  • E = Estimated
  • M = Missing
  • NA = Not Available
  • ‡ = Partner data that is not subject to review by the National Climate Archives
Date modified: